Location: Unspecified
(0.0000°N, 0.0000°E)
Time: 23:16:05
(UTC+00:00)

SRMSAT - Pass Details

Date: 16 July 2019
Orbit: 848 x 866 km, 20.0° (Epoch: 16 August)

Event Time Altitude Azimuth Distance (km) Brightness Sun altitude
Rises 20:28:30 0° 264° (W) 3,428 ? -32.8°
Reaches altitude 10° 20:31:13 10° 271° (W) 2,489 ? -33.5°
Enters shadow 20:36:24 40° 330° (NNW) 1,245 ? -34.6°
